CTN8H LSZH-LDZA

Flight info

Callsign CTN8H
Flight time 0h 54m
Altitude 33000
Route DEGES Z2 TUNUM Z204 GEDSO DCT LULUD
Aircraft A320/M-SDE3FGHIRWY/LB1

Departure

Time 2026-04-26 19:16
Airport Zürich Airport (LSZH)

Arrival

Time 2026-04-26 20:11
Airport Zagreb Franjo Tuđman International Airport (LDZA)
Time Latitude Longitude Altitude Speed Heading
2026-04-26 19:16 47.45654 8.64916 10162 ft 296 kts 70°
2026-04-26 19:16 47.46244 8.67929 10649 ft 312 kts 80°
2026-04-26 19:16 47.46406 8.71195 10860 ft 334 kts 88°
2026-04-26 19:16 47.46490 8.74744 11347 ft 346 kts 88°
2026-04-26 19:17 47.46586 8.78277 12017 ft 351 kts 87°
2026-04-26 19:17 47.46621 8.81910 12718 ft 356 kts 94°
2026-04-26 19:17 47.46250 8.85552 13407 ft 361 kts 102°
2026-04-26 19:17 47.45722 8.89196 14089 ft 365 kts 100°
2026-04-26 19:18 47.45605 8.92999 14686 ft 369 kts 87°
2026-04-26 19:18 47.45701 8.96811 15299 ft 372 kts 87°
2026-04-26 19:18 47.45806 9.00647 15899 ft 376 kts 86°
2026-04-26 19:18 47.45915 9.04526 16508 ft 380 kts 86°
2026-04-26 19:19 47.46022 9.08397 17098 ft 384 kts 86°
2026-04-26 19:19 47.46131 9.12355 17687 ft 387 kts 86°
2026-04-26 19:19 47.46237 9.16351 18276 ft 391 kts 86°
2026-04-26 19:19 47.46341 9.20385 18803 ft 395 kts 86°
2026-04-26 19:20 47.46441 9.24456 19295 ft 399 kts 86°
2026-04-26 19:20 47.46509 9.27238 19640 ft 401 kts 86°
2026-04-26 19:20 47.46643 9.32722 20341 ft 406 kts 86°
2026-04-26 19:20 47.46746 9.36909 20854 ft 409 kts 86°
2026-04-26 19:21 47.46849 9.41124 21364 ft 412 kts 86°
2026-04-26 19:21 47.46951 9.45385 21877 ft 416 kts 86°
2026-04-26 19:21 47.47048 9.49667 22392 ft 419 kts 86°
2026-04-26 19:21 47.47143 9.53990 22906 ft 422 kts 86°
2026-04-26 19:22 47.47237 9.58344 23392 ft 426 kts 86°
2026-04-26 19:22 47.47142 9.62730 23853 ft 430 kts 93°
2026-04-26 19:22 47.46904 9.67162 24254 ft 433 kts 94°
2026-04-26 19:22 47.46664 9.71598 24666 ft 435 kts 94°
2026-04-26 19:23 47.46381 9.76057 25063 ft 438 kts 99°
2026-04-26 19:23 47.45694 9.80450 25458 ft 440 kts 103°
2026-04-26 19:23 47.44947 9.84843 25840 ft 442 kts 103°
2026-04-26 19:23 47.44187 9.89258 26225 ft 444 kts 103°
2026-04-26 19:24 47.43419 9.93687 26601 ft 446 kts 104°
2026-04-26 19:24 47.42645 9.98136 26971 ft 448 kts 104°
2026-04-26 19:24 47.41083 10.07090 27691 ft 452 kts 104°
2026-04-26 19:25 47.40294 10.11585 28042 ft 454 kts 104°
2026-04-26 19:25 47.39766 10.14588 28269 ft 456 kts 104°
2026-04-26 19:25 47.38698 10.20659 28707 ft 459 kts 104°
2026-04-26 19:25 47.37894 10.25222 29042 ft 461 kts 104°
2026-04-26 19:26 47.37088 10.29803 29364 ft 462 kts 104°
2026-04-26 19:26 47.36276 10.34404 29661 ft 465 kts 104°
2026-04-26 19:26 47.35457 10.39023 29972 ft 467 kts 105°
2026-04-26 19:26 47.34631 10.43661 30265 ft 469 kts 105°
2026-04-26 19:27 47.33799 10.48316 30516 ft 470 kts 105°
2026-04-26 19:27 47.32962 10.52987 30754 ft 472 kts 105°
2026-04-26 19:27 47.32119 10.57672 30987 ft 474 kts 105°
2026-04-26 19:27 47.31273 10.62375 31214 ft 475 kts 105°
2026-04-26 19:28 47.30426 10.67081 31452 ft 476 kts 105°
2026-04-26 19:28 47.29579 10.71793 31765 ft 475 kts 105°
2026-04-26 19:28 47.28732 10.76492 32075 ft 474 kts 105°
2026-04-26 19:28 47.27883 10.81180 32366 ft 474 kts 105°
2026-04-26 19:29 47.27030 10.85865 32668 ft 473 kts 106°
2026-04-26 19:29 47.26173 10.90539 32962 ft 473 kts 106°
2026-04-26 19:29 47.25311 10.95211 33174 ft 473 kts 106°
2026-04-26 19:29 47.24457 10.99837 33199 ft 464 kts 106°
2026-04-26 19:30 47.22797 11.08856 33200 ft 458 kts 106°
2026-04-26 19:30 47.21406 11.16411 33180 ft 457 kts 106°
2026-04-26 19:31 47.19450 11.26953 33191 ft 457 kts 106°
2026-04-26 19:31 47.17767 11.35920 33192 ft 458 kts 106°
2026-04-26 19:32 47.16066 11.44933 33180 ft 457 kts 106°
2026-04-26 19:32 47.14367 11.53925 33173 ft 457 kts 107°
2026-04-26 19:33 47.12661 11.62922 33166 ft 457 kts 107°
2026-04-26 19:33 47.10946 11.71917 33160 ft 457 kts 107°
2026-04-26 19:34 47.09225 11.80887 33148 ft 457 kts 107°
2026-04-26 19:34 47.07249 11.89721 33147 ft 455 kts 115°
2026-04-26 19:35 47.04679 11.98209 33154 ft 455 kts 115°
2026-04-26 19:35 47.02111 12.06680 33154 ft 455 kts 115°
2026-04-26 19:36 47.00392 12.12342 33152 ft 455 kts 115°
2026-04-26 19:36 46.96957 12.23607 33167 ft 455 kts 116°
2026-04-26 19:37 46.94374 12.32046 33173 ft 454 kts 116°
2026-04-26 19:37 46.91785 12.40475 33156 ft 455 kts 116°
2026-04-26 19:38 46.89187 12.48902 33157 ft 454 kts 116°
2026-04-26 19:38 46.86589 12.57326 33155 ft 455 kts 116°
2026-04-26 19:39 46.83979 12.65750 33146 ft 455 kts 116°
2026-04-26 19:39 46.81360 12.74165 33135 ft 455 kts 116°
2026-04-26 19:40 46.78737 12.82567 33139 ft 455 kts 116°
2026-04-26 19:40 46.76114 12.90937 32971 ft 450 kts 116°
2026-04-26 19:41 46.74821 12.95065 32475 ft 444 kts 116°
2026-04-26 19:41 46.73544 12.99139 32022 ft 439 kts 116°
2026-04-26 19:41 46.72279 13.03168 31538 ft 435 kts 116°
2026-04-26 19:41 46.71854 13.04517 31381 ft 434 kts 116°
2026-04-26 19:42 46.69770 13.11107 30607 ft 428 kts 116°
2026-04-26 19:42 46.68525 13.15016 30166 ft 425 kts 116°
2026-04-26 19:42 46.67289 13.18908 29647 ft 422 kts 116°
2026-04-26 19:42 46.66062 13.22771 29212 ft 418 kts 116°
2026-04-26 19:43 46.63623 13.30456 29138 ft 419 kts 116°
2026-04-26 19:43 46.61173 13.38177 29144 ft 426 kts 116°
2026-04-26 19:44 46.59046 13.44822 29121 ft 445 kts 116°
2026-04-26 19:44 46.56414 13.53006 29134 ft 447 kts 116°
2026-04-26 19:45 46.53775 13.61190 29136 ft 448 kts 116°
2026-04-26 19:45 46.51168 13.69276 29136 ft 429 kts 116°
2026-04-26 19:46 46.48680 13.76969 29143 ft 418 kts 116°
2026-04-26 19:46 46.46208 13.84585 29149 ft 417 kts 116°
2026-04-26 19:47 46.44150 13.90901 29147 ft 417 kts 116°
2026-04-26 19:47 46.41237 13.99792 29155 ft 417 kts 116°
2026-04-26 19:48 46.38660 14.07307 29162 ft 417 kts 122°
2026-04-26 19:48 46.35646 14.14438 28587 ft 412 kts 123°
2026-04-26 19:49 46.34116 14.17931 28110 ft 409 kts 124°
2026-04-26 19:49 46.32548 14.21352 27625 ft 407 kts 125°
2026-04-26 19:49 46.30983 14.24756 27182 ft 404 kts 124°
2026-04-26 19:49 46.29473 14.28159 26753 ft 401 kts 123°
2026-04-26 19:50 46.28000 14.31567 26324 ft 398 kts 122°
2026-04-26 19:50 46.26552 14.34959 25897 ft 395 kts 122°
2026-04-26 19:50 46.25117 14.38323 25461 ft 392 kts 122°
2026-04-26 19:50 46.23685 14.41663 25036 ft 390 kts 122°
2026-04-26 19:51 46.22257 14.44972 24614 ft 387 kts 122°
2026-04-26 19:51 46.20831 14.48250 24209 ft 384 kts 123°
2026-04-26 19:51 46.19417 14.51482 23559 ft 379 kts 123°
2026-04-26 19:51 46.18016 14.54683 22711 ft 375 kts 123°
2026-04-26 19:52 46.16632 14.57849 21951 ft 370 kts 123°
2026-04-26 19:52 46.15268 14.60972 21220 ft 365 kts 123°
2026-04-26 19:52 46.13924 14.64047 20549 ft 359 kts 123°
2026-04-26 19:52 46.12595 14.67084 19936 ft 358 kts 123°
2026-04-26 19:53 46.11274 14.70099 19582 ft 354 kts 124°
2026-04-26 19:53 46.09963 14.73087 19240 ft 351 kts 123°
2026-04-26 19:53 46.08665 14.76039 18909 ft 347 kts 123°
2026-04-26 19:53 46.07379 14.78960 18598 ft 343 kts 123°
2026-04-26 19:54 46.06105 14.81852 18245 ft 341 kts 124°
2026-04-26 19:54 46.04836 14.84730 18174 ft 342 kts 123°
2026-04-26 19:54 46.03555 14.87636 18049 ft 344 kts 123°
2026-04-26 19:54 46.02276 14.90533 17647 ft 342 kts 123°
2026-04-26 19:55 46.01007 14.93408 17262 ft 340 kts 123°
2026-04-26 19:55 45.99747 14.96262 16895 ft 337 kts 123°
2026-04-26 19:55 45.98488 14.99109 16493 ft 336 kts 123°
2026-04-26 19:55 45.97244 15.01909 16270 ft 327 kts 123°
2026-04-26 19:56 45.96056 15.04578 16120 ft 308 kts 123°
2026-04-26 19:56 45.94917 15.07134 15716 ft 300 kts 123°
2026-04-26 19:56 45.93799 15.09640 15233 ft 296 kts 123°
2026-04-26 19:56 45.92695 15.12117 14718 ft 293 kts 123°
2026-04-26 19:57 45.91597 15.14579 14198 ft 292 kts 123°
2026-04-26 19:57 45.90504 15.17030 13625 ft 291 kts 124°
2026-04-26 19:57 45.89415 15.19475 13060 ft 289 kts 123°
2026-04-26 19:57 45.88339 15.21890 12518 ft 288 kts 123°
2026-04-26 19:58 45.87265 15.24301 12175 ft 285 kts 123°
2026-04-26 19:58 45.86198 15.26687 11825 ft 283 kts 123°
2026-04-26 19:58 45.85132 15.29061 11468 ft 282 kts 122°
2026-04-26 19:58 45.84069 15.31424 11083 ft 282 kts 122°
2026-04-26 19:59 45.83006 15.33786 10727 ft 281 kts 122°
2026-04-26 19:59 45.81954 15.36127 10398 ft 279 kts 121°
2026-04-26 19:59 45.80911 15.38449 10093 ft 275 kts 122°
2026-04-26 19:59 45.79877 15.40749 9725 ft 274 kts 122°
2026-04-26 20:00 45.78847 15.43035 9340 ft 272 kts 122°
2026-04-26 20:00 45.77824 15.45309 8959 ft 271 kts 122°
2026-04-26 20:00 45.76807 15.47568 8629 ft 268 kts 123°
2026-04-26 20:00 45.75799 15.49802 8317 ft 265 kts 123°
2026-04-26 20:01 45.74803 15.52009 8001 ft 263 kts 123°
2026-04-26 20:01 45.73817 15.54188 7686 ft 260 kts 124°
2026-04-26 20:01 45.72842 15.56348 7403 ft 255 kts 124°
2026-04-26 20:01 45.71903 15.58424 7275 ft 244 kts 126°
2026-04-26 20:02 45.70997 15.60415 7095 ft 235 kts 126°
2026-04-26 20:02 45.70103 15.62348 6760 ft 232 kts 127°
2026-04-26 20:02 45.69223 15.64264 6471 ft 230 kts 126°
2026-04-26 20:02 45.68641 15.65524 6266 ft 228 kts 126°
2026-04-26 20:03 45.67492 15.68042 5894 ft 224 kts 126°
2026-04-26 20:03 45.66652 15.69905 5608 ft 222 kts 125°
2026-04-26 20:03 45.65822 15.71747 5367 ft 218 kts 125°
2026-04-26 20:03 45.65008 15.73550 5134 ft 214 kts 125°
2026-04-26 20:04 45.64207 15.75317 4825 ft 214 kts 124°
2026-04-26 20:04 45.63391 15.77114 4547 ft 212 kts 124°
2026-04-26 20:04 45.62601 15.78855 4225 ft 212 kts 123°
2026-04-26 20:04 45.61800 15.80621 4012 ft 205 kts 122°
2026-04-26 20:05 45.61127 15.82333 3888 ft 189 kts 108°
2026-04-26 20:05 45.60869 15.84097 3687 ft 177 kts 91°
2026-04-26 20:05 45.61002 15.85812 3372 ft 174 kts 75°
2026-04-26 20:05 45.61487 15.87352 3113 ft 172 kts 59°
2026-04-26 20:06 45.62257 15.88644 3009 ft 171 kts 50°
2026-04-26 20:06 45.63050 15.89840 2995 ft 158 kts 50°
2026-04-26 20:06 45.63766 15.90919 2935 ft 143 kts 50°
2026-04-26 20:06 45.64418 15.91905 2816 ft 133 kts 51°
2026-04-26 20:07 45.65043 15.92852 2665 ft 130 kts 50°
2026-04-26 20:07 45.65658 15.93782 2503 ft 129 kts 50°
2026-04-26 20:07 45.66269 15.94708 2337 ft 128 kts 50°
2026-04-26 20:07 45.66875 15.95625 2187 ft 125 kts 50°
2026-04-26 20:08 45.67469 15.96523 2005 ft 123 kts 50°
2026-04-26 20:08 45.68053 15.97409 1833 ft 122 kts 50°
2026-04-26 20:08 45.68641 15.98300 1669 ft 123 kts 49°
2026-04-26 20:08 45.69232 15.99195 1499 ft 124 kts 49°
2026-04-26 20:09 45.69829 16.00100 1335 ft 126 kts 49°
2026-04-26 20:09 45.70436 16.01020 1152 ft 130 kts 48°
2026-04-26 20:09 45.71053 16.01970 927 ft 130 kts 47°
2026-04-26 20:09 45.71677 16.02912 791 ft 129 kts 46°
2026-04-26 20:10 45.72302 16.03839 662 ft 130 kts 46°
2026-04-26 20:10 45.72917 16.04785 469 ft 130 kts 47°
2026-04-26 20:10 45.73521 16.05712 364 ft 120 kts 46°
2026-04-26 20:10 45.73996 16.06425 361 ft 75 kts 46°
2026-04-26 20:11 45.74242 16.06800 359 ft 37 kts 47°
2026-04-26 20:11 45.74407 16.07049 361 ft 33 kts 46°
2026-04-26 20:11 45.74561 16.07284 358 ft 32 kts 47°
2026-04-26 20:12 45.74624 16.07586 358 ft 0 kts 136°
2026-04-26 20:13 45.74610 16.07604 358 ft 5 kts 136°
2026-04-26 20:13 45.74569 16.07660 363 ft 9 kts 136°
2026-04-26 20:14 45.74540 16.07699 363 ft 4 kts 137°
2026-04-26 20:14 45.74502 16.07749 359 ft 10 kts 137°
2026-04-26 20:14 45.74445 16.07825 359 ft 12 kts 137°
2026-04-26 20:14 45.74377 16.07903 359 ft 14 kts 163°
2026-04-26 20:15 45.74309 16.07905 363 ft 11 kts 150°
2026-04-26 20:15 45.74272 16.07952 358 ft 4 kts 137°
2026-04-26 20:15 45.74265 16.07963 362 ft 3 kts 136°
2026-04-26 20:15 45.74263 16.07965 361 ft 0 kts 136°